星链-34188 (STARLINK-34188)

导读

STARLINK-34188是美国SpaceX公司星链(Starlink)星座的一颗低轨通信卫星,于2025年5月28日发射入轨。星链星座旨在为全球提供宽带互联网接入服务,该卫星采用平板设计,搭载Ku/Ka波段通信载荷,配备氪工质霍尔推进器,具备自主避撞能力,设计寿命约5-7年,退役后将主动离轨坠入大气层烧毁。

基本信息
目录编号:
64183
目录名称:
STARLINK-34188
国际标识:
2025-113P
轨道中心:
EARTH
卫星名称:
星链-34188
卫星全名:
星链-34188 (STARLINK-34188)
卫星状态:
在轨 (已飞行464 天)
发射日期:
2025-05-28 UTC
国别 :
美国 (US)
星等 :
--
轨道信息
数据来源 国际轨道数据
星历时间: 2026-09-04T01:49:04+0800
11小时前
查看轨道信息
半长轴: 6848.824km
偏心率: 0.0001172
轨道倾角: 53.161°
近地点辐角 73.239°
升交点赤经 342.833°
平近点角 286.874°
近地点: 469.884km
远地点: 471.49km
周期: 94.012分钟
每日圈数: 15.317181
详细信息
固有亮度:
5
最大亮度:
2.5
卫星平台:
Starlink V1.0
覆盖范围:
全球
运营商:
太空探索技术公司
运营商所在国:
美国
制造商(研发单位):
太空探索技术公司
制造商所在国:
美国
使用方式:
暂无
卫星简介
Starlink 计划是 SpaceX 推出的全球卫星互联网项目,通过发射低轨道卫星,为全球尤其是偏远地区提供高速、低延迟的互联网服务。自 2019 年起,Starlink 已部署数千颗卫星,旨在缩小全球数字鸿沟,推动互联网普及。该项目还为军事、航空等行业提供通信支持,带来广泛经济效益。
2D轨道图
3D轨道图
轨道高度分析图
轨道倾角分析图
轨道综合分析图
查看轨道综合分析图
交会数据列表
事件ID 空间交会对象 最接近时刻(TCA) 交会距离 交会风险概率(CRP) 交会风险指数(CRI) 操作
CDM_260904-200504-857706-418321
2026-09-04T
20:05:29+0000
0.569 km
远距离
6.356054E-5 中风险 0.71
CDM_260904-095705-258006-418323
2026-09-04T
09:57:47+0000
0.921 km
远距离
2.103651E-5 中风险 0.61
CDM_260904-183405-258006-418321
2026-09-04T
18:34:33+0000
1.239 km
极远距离
7.573341E-6 低风险 0.53
CDM_260904-103205-195806-418321
2026-09-04T
10:32:10+0000
1.347 km
极远距离
6.119255E-6 低风险 0.51
CDM_260904-190805-195806-418321
2026-09-04T
19:08:56+0000
1.577 km
极远距离
3.684304E-6 低风险 0.46
CDM_260904-085805-195806-418321
2026-09-04T
08:58:13+0000
1.645 km
极远距离
3.236042E-6 低风险 0.45
CDM_260904-143604-857706-418321
2026-09-04T
14:36:38+0000
1.481 km
极远距离
2.805049E-6 低风险 0.44
CDM_260904-204205-195806-418321
2026-09-04T
20:42:53+0000
1.842 km
极远距离
2.345834E-6 低风险 0.42
CDM_260904-062906-418306-788121
2026-09-04T
06:29:43+0000
2.276 km
极远距离
2.093159E-6 低风险 0.41
CDM_260903-234706-418306-517621
2026-09-03T
23:47:32+0000
2.271 km
极远距离
2.029194E-6 低风险 0.41